Regional Weather Roundup
Issued by NWS

Home | Current Version | Previous Version | Text Only | Print | Product List | Glossary On
Versions: 1 2 3 4 5 6 7 8 9 10 11 12 13 14 15 16 17 18 19 20 21 22 23 24 25 26 27 28 29 30 31 32 33 34 35 36 37 38 39 40 41 42 43 44 45 46 47 48 49 50
000
ASUS43 KLOT 212010
RWRIL

ILLINOIS REGIONAL WEATHER ROUNDUP
NATIONAL WEATHER SERVICE CHICAGO/ROMEOVILLE IL
300 PM CDT THU AUG 21 2014

NOTE: "FAIR" INDICATES FEW OR NO CLOUDS BELOW 12,000 FEET WITH NO
SIGNIFICANT WEATHER AND/OR OBSTRUCTIONS TO VISIBILITY.

* THESE STATIONS ARE NOT UNDER NWS QUALITY CONTROL. THEY ALSO MAY NOT
  REPORT WEATHER SUCH AS PRECIPITATION OR FOG.

ILZ001-002-007-009-015-016-024-212100-
NORTHWEST ILLINOIS

CITY           SKY/WX    TMP DP  RH WIND       PRES   REMARKS
MOLINE         CLOUDY    83  69  62 CALM      29.91F HX  86
STERLING*      CLOUDY    79  73  83 NW7       29.95F HX  82
SAVANNA*       LGT RAIN  77  73  86 SE8       29.93F
$$

ILZ003-004-008-010-011-017-018-212100-
NORTH CENTRAL ILLINOIS

CITY           SKY/WX    TMP DP  RH WIND       PRES   REMARKS
ROCKFORD       TSTM      75  72  90 E3        29.97R
FREEPORT*      LGT RAIN  73  72  95 SE9       29.97F
ROCHELLE*      DRIZZLE   78  72  82 SW3       29.98R
DE KALB*       LGT RAIN  77  72  84 S5        29.97S
PERU*          LGT RAIN  83  73  70 SW6       29.94S HX  89
$$

ILZ005-006-012>014-019>023-212100-
NORTHEAST ILLINOIS

CITY           SKY/WX    TMP DP  RH WIND       PRES   REMARKS
CHICAGO-OHARE  CLOUDY    78  69  73 CALM      29.95F HX  80
CHICAGO-MIDWAY CLOUDY    82  74  76 SE9       29.94F HX  88
AURORA         CLOUDY    81  72  74 SW7       29.96R HX  85
LANSING*       LGT RAIN  80  72  76 CALM      29.96F HX  83
JOLIET*        PTSUNNY   82  71  71 SW3       29.95F HX  86
WAUKEGAN       LGT RAIN  73  70  90 E6        29.95S
DUPAGE AIRPORT CLOUDY    80  72  76 S7        29.95F HX  84
KANKAKEE*      PTSUNNY   85  76  75 S7        29.95F HX  94
WHEELING       CLOUDY    77  72  84 SE3       29.97S THUNDER
MORRIS*        CLOUDY    83  74  73 SW5       29.93F HX  90
ROMEOVILLE*    PTSUNNY   82  71  71 CALM      29.95F HX  86
NORTHERLY ISL    N/A     75  71  87 E6          N/A
$$

LMZ740>746-212100-
SOUTHERN LAKE MICHIGAN

STATION/POSITION SKY/WX   TEMP    WIND        PRES    VSBY  WAVE
                          AIR SEA DIR/SP/G                  HT/PER
                          (F)     (DEG/KT/KT) (MB)    (MI)  (FT/S)
SOUTHERN BUOY              69 68  100/  8/ 10 1013.5F         0
WAUKEGAN HARBOR            72      90/  6/  8   N/A
HARRISON CRIB              74     110/ 12/ 13   N/A
BURNHAM HARBOR             74      90/  5/  7   N/A
CALUMET HARBOR             78      70/  4/  5 1013.1F
BURNS HARBOR               77     170/  1/  4   N/A
MICHIGAN CITY              77     120/  4/  5   N/A
MICHIGAN CITY 6N           73 71   70/  4/  4   N/A           0
ST. JOSEPH                 73 71  150/  4/  4   N/A           1/ 3
$$

ILZ025>027-034>036-040-047-049-050-058-095>099-212100-
WEST-CENTRAL ILLINOIS

CITY           SKY/WX    TMP DP  RH WIND       PRES   REMARKS
QUINCY         MOSUNNY   90  74  59 SW10      29.93S HX  99
GALESBURG*     CLOUDY    88  75  65 CALM      29.94F HX  97
MACOMB*        PTSUNNY   86  74  68 CALM      29.96F HX  94
JACKSONVILLE*  PTSUNNY   91  77  63 SW7       29.94F HX 105
PITTSFIELD*    MOSUNNY   92  75  57 SW10      29.94F HX 102
$$

ILZ028>032-037-038-041>044-048-051>054-059>061-212100-
CENTRAL ILLINOIS

CITY           SKY/WX    TMP DP  RH WIND       PRES   REMARKS
PONTIAC        CLOUDY    88  75  66 SW8       29.94F HX  97
DECATUR        PTSUNNY   88  76  67 SW14      29.96F HX  99
PEORIA         CLOUDY    85  73  67 SW8       29.95S HX  91
LACON*         CLOUDY    86  73  65 W7        29.94S HX  92
LINCOLN*       PTSUNNY   89  74  62 SW6       29.92F HX  97
SPRINGFIELD    PTSUNNY   87  75  67 SW8       29.95F HX  96
TAYLORVILLE    PTSUNNY   84  75  74 SW10      29.96F HX  92
$$

ILZ033-039-045-046-055>057-062-063-212100-
EAST-CENTRAL ILLINOIS

CITY           SKY/WX    TMP DP  RH WIND       PRES   REMARKS
CHAMPAIGN      PTSUNNY   87  76  69 S13       29.97F HX  97
DANVILLE*      RAIN      83  76  78 S9        29.95F HX  92
RANTOUL*       PTSUNNY   88  74  62 SW12      29.97F HX  96
MATTOON        CLOUDY    86  75  69 S10       29.98F HX  95
PARIS*         PTSUNNY   86  78  75 S8        29.99F HX  99
$$

ILZ079-100>102-212100-
SOUTHWEST ILLINOIS

CITY           SKY/WX    TMP DP  RH WIND       PRES   REMARKS
ALTON          PTSUNNY   90  81  74 S9        29.96F HX 108
BELLEVILLE     MOSUNNY   91  77  63 VRB2      29.96F HX 105
CAHOKIA*       MOSUNNY   93  74  53 S9        29.95F HX 103
SPARTA*        PTSUNNY   91  75  60 S7        29.99F HX 101
$$

ILZ064>066-069>071-074>076-080>082-084>086-088>090-092>094-212100-
SOUTH-CENTRAL ILLINOIS

CITY           SKY/WX    TMP DP  RH WIND       PRES   REMARKS
CARBONDALE     PTSUNNY   89  74  60 S14G21    30.00F HX  98
CAIRO*         MOSUNNY   92  73  53 SW10      30.02F HX 101
MARION         PTSUNNY   90  75  62 S12       30.01F HX 100
MT. VERNON     PTSUNNY   90  75  62 S10       30.00F HX 100
CENTRALIA*     PTSUNNY   94  73  50 S9        29.99F HX 103
SALEM*         PTSUNNY   90  77  66 S7        29.99F HX 102
$$

ILZ067-068-072-073-078-083-087-091-212100-
SOUTHEAST ILLINOIS

CITY           SKY/WX    TMP DP  RH WIND       PRES   REMARKS
LAWRENCEVILLE  MOSUNNY   90  77  65 S8        30.00F HX 103
FLORA*         MOSUNNY   88  75  66 S8        29.99F HX  98
FAIRFIELD*     PTSUNNY   91  81  70 S7        29.99F HX 110
HARRISBURG*    PTSUNNY   90  74  59 S9        30.02F HX  99
ROBINSON*      MOSUNNY   88  77  69 S8        30.00F HX 100
CARMI*         MOSUNNY   91  79  66 S9        30.00F HX 107
$$

ABBREVIATIONS USED IN REMARKS
   TC - TEMPERATURE IN CELSIUS
  WCI - WIND CHILL INDEX
   HX - HEAT INDEX
  VSB - VISIBILITY
$$



USA.gov is the U.S. government's official web portal to all federal, state and local government web resources and services.